Theta_e
319 316 314 315 317 315 313 312 312 318 321 320 319 320 321 324 324 326 329 330 332 333 334 332 330 329 328 325 327 325 323 325 323 321 320 320 320 322 324 325 326 325 324 324
314 312 315 315 314 313 313 312 314 318 320 320 320 318 322 324 326 327 328 329 331 332 334 332 332 330 327 325 326 326 324 325 324 323 323 323 322 323 325 324 325 325 324 324
311 313 315 316 316 315 315 313 314 314 318 320 318 316 319 324 327 328 329 330 331 332 333 334 332 331 329 326 324 325 324 324 325 326 324 325 326 325 321 322 322 324 324 324
313 315 315 316 314 316 312 316 316 315 314 307 317 305 317 321 322 324 326 328 328 330 334 335 334 332 329 328 326 323 324 324 323 326 324 325 321 319 321 321 323 323 324 323
311 312 313 313 314 317 315 319 318 316 314 312 313 309 315 319 317 320 324 326 326 329 333 333 334 333 329 328 327 326 323 323 323 325 326 323 323 322 322 321 324 324 324 323
313 316 316 316 319 320 321 318 316 316 313 306 311 309 310 315 317 319 322 324 325 329 332 333 334 334 329 329 326 325 322 323 323 322 323 325 325 324 322 322 320 319 320 320
313 314 318 321 317 320 319 316 306 305 305 303 313 309 310 318 320 321 321 324 327 330 332 332 332 331 329 328 326 324 322 322 322 321 322 324 325 326 324 322 320 320 318 319
307 306 315 319 316 314 316 314 306 299 300 302 312 304 310 320 323 325 325 326 328 329 331 331 332 330 328 328 326 323 321 320 321 321 322 324 324 322 323 323 322 320 319 319
308 307 316 316 316 318 315 311 315 309 310 305 306 310 318 321 321 324 324 326 328 329 331 332 332 329 329 329 326 323 321 320 321 321 325 326 325 324 324 325 325 321 323 320
314 307 315 314 317 316 316 317 309 310 300 298 304 305 307 313 317 322 324 325 329 331 332 332 330 328 329 329 327 324 323 321 321 321 323 324 323 324 324 325 324 324 324 323
317 314 313 316 313 312 312 311 312 312 309 301 300 304 315 315 319 320 323 326 328 330 330 330 328 328 329 328 325 324 323 321 321 321 322 322 323 323 324 324 324 324 324 323
318 316 308 310 317 317 316 314 314 307 304 309 306 306 319 322 323 325 323 325 328 329 329 328 327 327 328 327 325 322 323 321 320 322 322 322 323 324 323 324 325 326 324 324
320 314 306 309 314 317 314 315 316 315 315 307 304 306 321 323 324 325 324 325 327 329 328 327 326 326 326 326 325 322 322 321 320 321 321 323 324 324 324 324 325 326 325 324
322 320 312 304 308 313 311 313 314 315 309 307 308 310 315 319 320 323 325 325 325 327 328 326 326 325 325 326 325 323 322 321 320 321 321 322 323 324 324 324 324 325 325 324
325 315 315 313 312 312 311 310 311 311 312 308 310 311 315 319 319 320 325 327 325 325 326 326 326 325 325 325 325 324 322 322 321 320 320 321 323 324 324 323 323 324 325 325
322 315 315 311 313 313 310 311 313 313 313 313 314 314 321 323 322 323 326 326 326 326 326 326 326 326 324 324 325 324 322 323 323 322 321 321 321 321 323 322 323 324 324 325
321 317 313 306 312 310 305 310 310 312 316 316 311 318 322 320 321 324 326 327 327 327 327 326 327 327 326 326 326 324 323 324 323 322 321 320 321 320 322 322 322 323 324 325
320 319 314 306 309 299 312 318 318 316 317 319 319 320 322 323 326 326 326 325 327 327 328 328 327 328 328 327 327 326 323 323 322 322 321 320 320 320 321 322 322 324 324 325
324 319 311 305 304 308 311 316 316 315 314 321 320 321 323 324 325 325 326 326 328 329 330 329 329 329 329 327 327 325 322 322 322 321 321 320 320 320 321 321 323 325 324 324
320 323 314 309 303 300 312 320 322 321 312 322 322 323 323 322 314 318 324 326 327 327 327 327 328 328 329 328 328 324 322 321 320 321 321 321 321 321 321 323 324 325 325 324
315 315 309 306 306 309 320 321 322 309 314 323 324 324 324 320 322 326 326 326 328 328 327 328 328 327 329 329 327 323 322 320 322 323 323 322 323 324 324 325 325 326 325 324
312 310 310 313 308 304 323 321 314 325 329 327 327 325 325 325 326 324 325 326 326 326 326 327 326 327 329 329 326 324 323 324 324 324 323 324 325 324 322 325 325 326 325 324
312 319 316 317 316 326 328 328 330 329 330 329 328 328 327 325 324 323 325 326 327 327 327 326 326 328 329 328 328 326 326 326 325 326 326 327 327 327 327 326 325 323 325 323
321 322 318 318 322 323 326 328 330 331 332 331 329 327 327 324 325 324 326 327 327 327 327 327 326 325 327 328 328 329 330 329 328 328 328 329 328 327 329 327 326 324 323 323
321 322 318 320 322 323 326 329 330 330 330 328 327 327 326 325 326 326 326 327 328 328 329 328 327 327 326 328 329 331 330 330 329 328 328 327 327 329 328 330 327 325 330 322
323 319 317 316 324 328 328 330 329 328 328 329 328 326 328 329 328 327 326 328 329 327 329 328 329 330 328 328 328 330 330 330 329 326 323 324 325 327 327 326 326 311 305 305
Wind_Speed
7 9 3 7 7 9 7 3 1 3 4 8 5 3 13 11 10 9 9 9 9 9 8 8 7 5 5 4 7 9 10 9 7 6 6 5 5 5 5 6 8 10 10 11
8 4 5 5 2 3 3 3 5 4 3 8 3 4 12 13 13 12 12 10 9 9 9 9 8 6 3 4 5 7 8 8 6 5 5 6 6 5 5 6 6 9 11 11
13 11 2 4 8 8 4 3 5 4 7 2 5 10 13 13 13 12 12 10 11 11 10 10 9 6 6 3 4 6 7 6 5 6 4 3 2 2 5 6 7 8 10 11
4 4 5 10 6 6 7 2 5 7 9 5 4 4 14 14 14 13 13 13 14 13 11 10 10 8 6 3 4 4 5 5 4 6 5 6 5 6 6 6 7 7 9 10
6 2 5 4 6 4 6 7 6 5 4 5 8 8 11 9 13 14 14 12 12 13 12 11 10 8 6 6 5 4 4 3 4 4 6 7 6 6 5 6 7 6 6 8
4 1 4 4 6 3 13 9 5 5 5 8 5 5 3 6 10 11 15 14 13 11 10 9 8 8 7 7 6 4 3 1 3 3 4 5 7 7 7 7 7 7 6 6
7 5 7 9 10 7 6 8 5 3 1 5 4 6 6 1 2 6 11 15 14 12 10 10 10 10 8 8 6 4 3 2 1 2 3 5 6 6 6 7 6 8 7 7
6 9 10 8 3 5 9 5 7 10 10 9 3 4 6 1 2 4 7 10 12 12 12 11 10 9 9 8 7 6 5 4 1 2 2 4 5 6 5 5 6 6 7 7
6 4 6 2 3 6 7 7 5 8 5 9 5 2 8 5 7 7 9 11 12 13 12 10 10 9 8 8 7 6 4 3 3 2 2 2 3 5 5 6 6 5 5 6
4 4 6 5 6 3 7 4 5 6 7 9 3 4 6 2 5 8 10 12 12 13 12 11 10 10 8 8 7 6 5 5 5 4 3 3 4 4 5 5 5 6 6 6
6 5 8 5 10 9 7 9 3 5 6 8 6 6 5 3 2 6 8 11 11 11 11 11 11 10 10 8 8 7 6 6 6 6 5 4 4 5 5 5 6 5 6 6
4 5 8 7 3 4 6 8 4 6 2 2 7 6 6 1 2 3 5 7 9 10 10 12 11 11 10 9 7 7 6 6 6 5 6 6 5 6 5 6 7 6 6 6
7 5 7 7 8 7 7 7 8 4 5 11 9 4 6 4 4 4 6 6 8 10 11 12 11 11 11 10 8 7 6 6 6 5 7 7 6 6 6 6 6 7 7 6
4 3 10 10 3 4 5 9 9 10 8 11 9 11 3 5 4 5 7 7 9 10 12 12 11 11 11 10 9 7 6 5 6 6 7 7 7 7 7 6 7 7 7 7
5 6 5 3 1 3 7 9 7 12 15 12 15 9 5 1 4 4 5 8 9 10 12 13 12 12 12 10 9 7 7 6 5 6 6 6 6 6 6 7 7 7 7 8
4 4 4 6 3 5 9 8 8 11 13 12 13 13 1 4 3 4 5 7 10 11 13 14 13 13 12 12 10 9 7 7 6 6 7 6 5 6 6 7 8 8 8 9
5 5 5 8 1 7 10 5 8 8 9 8 10 9 2 5 3 1 2 5 8 10 10 11 12 13 12 11 9 8 8 7 7 7 7 6 6 6 6 7 8 9 9 9
4 5 3 5 4 11 6 2 5 8 10 7 7 2 3 2 3 3 5 7 6 6 7 7 8 11 10 9 9 7 7 7 7 8 7 7 7 8 7 8 9 9 10 10
3 5 3 7 8 5 11 5 4 6 8 5 4 3 2 3 2 8 8 6 6 6 1 4 7 9 10 9 7 7 7 7 7 7 7 7 7 8 9 10 10 9 10 11
4 5 7 5 10 12 6 6 1 0 6 6 2 2 1 3 7 10 8 6 5 4 4 5 7 9 9 8 7 7 7 7 7 7 7 7 8 9 11 11 10 10 10 11
6 5 10 10 8 7 6 4 3 7 5 3 1 3 3 2 6 5 3 6 6 6 7 8 8 8 8 8 7 6 6 7 7 6 7 8 9 10 11 11 10 11 12 13
9 7 7 4 7 11 5 6 5 5 3 1 2 2 3 3 5 4 5 8 9 9 9 7 7 7 7 7 7 6 7 6 6 7 8 9 9 9 9 11 11 13 12 13
5 4 5 5 7 4 1 1 3 2 5 4 3 1 3 5 5 7 7 8 8 8 7 7 7 7 6 6 6 6 5 5 6 6 8 9 11 11 11 12 13 12 11 12
5 2 5 5 5 2 2 5 7 5 5 2 3 4 2 5 6 6 7 8 8 7 8 7 7 6 7 8 7 8 6 6 7 9 11 11 11 12 13 11 11 12 12 12
7 4 2 6 5 4 2 3 4 2 1 1 3 3 4 5 6 6 7 9 8 7 6 6 6 4 5 4 5 7 8 8 10 9 10 10 11 12 12 12 11 12 13 12
5 2 5 4 3 4 9 7 6 6 7 6 5 5 5 4 6 5 5 6 7 7 6 5 4 2 4 4 5 7 7 8 8 9 7 10 10 11 11 11 11 12 17 17
Wind_Direction
212 221 315 341 289 316 308 301 207 75 112 239 251 201 170 181 208 222 214 200 206 205 169 175 181 150 123 77 52 38 36 25 2 8 358 2 8 21 26 22 20 11 11 15
199 241 9 345 334 178 172 161 110 122 145 255 187 200 162 189 211 221 214 219 208 205 187 190 193 170 148 89 57 47 41 31 5 18 3 353 351 14 348 22 16 18 9 12
266 65 154 158 135 131 119 326 164 3 158 187 208 207 196 209 215 220 226 221 223 210 198 197 200 194 174 146 75 55 46 24 9 347 4 348 284 259 9 3 15 14 8 11
251 82 140 179 151 278 153 218 176 164 220 13 225 7 185 195 211 215 221 219 219 210 206 198 196 191 191 160 125 93 60 22 34 351 21 9 347 357 359 349 15 349 13 12
110 279 181 185 54 1 87 155 176 213 266 280 162 264 105 187 215 209 205 202 206 201 201 200 192 191 181 155 176 124 93 28 9 354 346 328 357 354 359 351 347 3 20 18
70 109 33 75 60 65 137 143 158 227 276 231 75 282 252 169 239 207 191 192 191 197 194 199 183 167 181 168 176 146 123 30 355 324 340 340 339 338 348 357 338 355 6 11
173 92 101 147 100 141 233 215 259 267 218 5 94 249 319 293 195 243 191 193 189 189 199 198 187 179 178 177 192 169 163 236 342 324 320 336 333 323 317 334 6 330 357 9
232 155 163 177 285 235 216 295 324 314 352 354 137 282 50 93 167 228 241 193 188 191 201 200 185 185 179 176 192 182 171 231 187 330 334 336 338 335 304 13 344 353 349 11
201 147 147 219 210 218 156 235 14 284 195 260 51 186 198 207 233 202 204 204 187 194 197 197 182 181 182 177 184 203 204 205 211 278 274 312 328 331 339 335 317 4 349 345
171 202 207 120 164 156 280 99 226 214 314 319 51 278 7 323 179 188 191 195 194 194 194 197 181 177 188 184 173 190 212 216 213 241 262 309 329 323 327 317 330 333 338 343
182 239 146 176 211 262 167 209 254 300 286 320 313 15 85 329 328 193 201 193 192 194 195 185 183 175 187 187 194 185 209 232 222 227 252 265 300 313 317 314 317 323 319 332
181 221 239 237 82 312 292 299 242 286 309 267 292 287 125 196 194 255 226 186 187 190 188 183 183 177 185 190 193 186 221 257 240 245 246 254 274 287 299 317 312 307 304 311
174 210 225 206 189 193 232 214 250 259 279 276 294 341 149 160 223 207 230 198 193 192 189 184 182 184 187 193 193 202 204 234 253 243 252 243 260 275 291 304 309 299 300 299
175 195 263 261 320 22 198 230 231 228 270 293 266 294 222 183 203 189 204 205 206 192 191 199 190 190 191 194 191 197 207 227 223 242 259 277 276 274 286 296 296 294 297 298
216 243 237 281 308 245 289 290 231 238 258 280 300 307 351 251 170 193 190 211 212 197 207 205 197 200 198 191 191 200 206 207 230 243 261 281 277 265 278 284 291 293 291 294
191 212 215 216 214 265 276 282 276 272 272 278 281 282 251 110 158 182 212 229 229 216 211 209 198 204 201 191 197 195 205 207 222 241 265 280 265 267 278 272 276 285 287 287
205 164 224 271 233 276 260 314 316 295 275 294 290 34 115 199 195 290 319 262 257 239 219 213 200 205 200 194 189 197 200 202 217 247 257 265 257 263 268 268 272 279 284 286
193 199 243 297 252 255 68 40 289 287 292 265 252 213 346 4 47 41 19 338 310 276 234 214 195 200 193 189 190 195 195 201 218 239 249 256 255 258 262 268 273 278 277 274
277 238 199 263 257 304 278 170 276 322 335 12 284 242 14 69 239 100 47 6 342 333 269 182 191 177 181 186 176 197 202 215 227 245 251 257 258 259 261 262 268 273 275 272
174 245 261 218 274 280 343 84 354 306 265 64 49 16 27 318 295 66 28 35 45 76 120 151 144 154 169 175 180 200 216 223 234 240 252 259 261 257 259 264 264 269 271 271
214 235 257 251 263 284 57 119 144 252 61 93 204 182 184 326 39 64 79 87 104 111 123 133 143 159 168 170 185 212 229 235 245 252 251 255 259 262 264 270 267 267 268 275
254 237 222 250 265 265 120 149 262 88 173 310 311 295 242 138 121 136 137 133 135 137 132 144 153 152 159 174 193 218 234 248 250 253 264 275 276 273 278 271 269 269 269 269
242 297 327 273 21 52 196 347 108 259 278 309 311 299 241 206 187 180 166 157 150 150 145 153 152 157 171 192 219 234 244 249 255 265 272 276 276 273 269 268 269 269 259 259
192 201 255 279 119 244 253 238 260 268 269 334 350 337 278 265 234 201 175 170 169 172 165 156 163 169 192 211 222 246 268 264 260 264 267 270 273 276 275 273 270 266 265 270
26 175 256 251 219 263 193 10 347 59 92 44 36 5 335 300 262 242 202 185 186 178 170 169 177 193 228 235 252 271 276 278 275 271 273 278 277 274 274 267 270 273 274 280
178 226 252 36 62 292 58 48 54 71 59 48 23 19 10 328 307 275 245 194 175 169 160 177 194 238 335 343 323 328 321 301 289 283 281 280 299 297 297 295 289 260 240 261